Regional Weather Roundup
Issued by NWS

Home | Current Version | Previous Version | Graphics & Text | Print | Product List | Glossary On
Versions: 1 2 3 4 5 6 7 8 9 10 11 12 13 14 15 16 17 18 19 20 21 22 23 24 25 26 27 28 29 30 31 32 33 34 35 36 37 38 39 40 41 42 43 44 45 46 47 48 49 50
330
ASUS43 KIND 061259
RWRIN

WEATHER ROUNDUP FOR INDIANA
NATIONAL WEATHER SERVICE INDIANAPOLIS IN
800 AM EST SAT FEB 06 2016

NOTE: "FAIR" INDICATES FEW OR NO CLOUDS BELOW 12,000 FEET WITH NO
SIGNIFICANT WEATHER AND/OR OBSTRUCTIONS TO VISIBILITY.

* - STATION DOES NOT REPORT WEATHER SUCH AS PRECIPITATION OR FOG.

+ - STATION NOT QUALITY CONTROLLED BY THE NATIONAL WEATHER SERVICE.
    USE DATA WITH CAUTION...ESPECIALLY DEWPOINT AND RELATIVE
    HUMIDITY OBSERVATIONS.

INZ001>003-010>013-019-020-061400-
NORTHWEST INDIANA

CITY           SKY/WX    TMP DP  RH WIND       PRES   REMARKS
GARY /AIRPORT/ MOCLDY    27  23  86 SW8       30.31R WCI  18
RENSSELAER +   CLEAR     23  19  86 S5        30.32F WCI  17

$$

LMZ046-743>745-061400-
SOUTHERN LAKE MICHIGAN

STATION/POSITION TIME  TEMP    WIND        PRES    WAVE
                       AIR SEA DIR/SP/G            HT
                 (UTC) (F)     (DEG/KT/KT) (MB)    (FT)
BURNS HARBOR     1200   25     180/  6/  9 1026.4S
MICHIGAN CITY    1200   25     180/  7/  8   N/A

$$

INZ004-005-014>016-021>024-061400-
NORTH CENTRAL INDIANA

CITY           SKY/WX    TMP DP  RH WIND       PRES   REMARKS
GOSHEN         CLOUDY    22  19  89 S5        30.30S FOG     WCI  16
PERU/GRISSOM   CLEAR     19  17  92 SW6       30.30R WCI  11
SOUTH BEND     PTCLDY    20  18  92 S7        30.30F FOG     WCI  11

$$

INZ006>009-017-018-025>027-061400-
NORTHEAST INDIANA

CITY           SKY/WX    TMP DP  RH WIND       PRES   REMARKS
ANGOLA *+      PTCLDY    19  18  93 CALM      30.29R
FORT WAYNE     PTCLDY    22  20  92 SW5       30.32R FOG     WCI  16

$$

INZ028-029-035-036-043>045-051>053-061400-
WEST CENTRAL INDIANA

CITY           SKY/WX    TMP DP  RH WIND       PRES   REMARKS
GREENCASTLE +  PTCLDY    19  14  79 CALM      30.33R HAZE
LAFAYETTE      CLEAR     19  17  92 CALM      30.34R FOG
TERRE HAUTE    CLOUDY    25  22  88 CALM      30.34R

$$

INZ030>032-037>040-046>048-054>057-064-065-061400-
CENTRAL INDIANA

CITY           SKY/WX    TMP DP  RH WIND       PRES   REMARKS
COLUMBUS       CLEAR     21  21 100 CALM      30.35S FOG
GREENWOOD *+   CLEAR     21  21 100 CALM      30.33S
INDIANAPOLIS   PTCLDY    22  17  81 CALM      30.31S FOG
-EAGLE CREEK   CLEAR     21  17  84 CALM      30.32S FOG
KOKOMO *+      CLEAR     19  16  86 SW6       30.32S WCI  11
MT COMFORT *+  CLEAR     21  19  93 CALM      30.33R
SHELBYVILLE    CLEAR     22  18  85 S5        30.33S FOG     WCI  16

$$

INZ033-034-041-042-049-050-058-059-061400-
EAST CENTRAL INDIANA

CITY           SKY/WX    TMP DP  RH WIND       PRES   REMARKS
MUNCIE         CLEAR     23  18  81 CALM      30.32R HAZE

$$

INZ060-061-067>069-081>083-085>088-061400-
SOUTHWEST INDIANA

CITY           SKY/WX    TMP DP  RH WIND       PRES   REMARKS
EVANSVILLE     PTCLDY    30  24  78 CALM      30.35R
HUNTINGBURG *+ CLOUDY    27  21  80 CALM      30.35R

$$

INZ062-063-066-070>080-084-089>092-061400-
SOUTH CENTRAL AND SOUTHEAST INDIANA

CITY           SKY/WX    TMP DP  RH WIND       PRES   REMARKS
BLOOMINGTON    PTCLDY    20  17  88 CALM      30.33R
MADISON *+     CLEAR     25  23  93 CALM      30.36S
SEYMOUR +      CLEAR     23  21  93 CALM      30.35S FOG

$$





USA.gov is the U.S. government's official web portal to all federal, state and local government web resources and services.